Ahmedabad, India

7:17 AM IST on May 23, 2017 (GMT +0530)
Ahmedabad

Weather History for VAAH - September, 2012

Change the Weather History Date:

Sunday, September 2, 2012

  Actual Average Record
Temperature  
Mean Temperature 86 °F -  
Max Temperature 94 °F 89 °F 98 °F (2008)
Min Temperature 79 °F 76 °F 73 °F (2014)
Cooling Degree Days 22    
Growing Degree Days 36 (Base 50)    
Moisture  
Dew Point 79 °F    
Average Humidity 77    
Maximum Humidity 94    
Minimum Humidity 60    
Precipitation  
Precipitation 0.00 in 0.10 in - ()
Sea Level Pressure  
Sea Level Pressure 29.59 in    
Wind  
Wind Speed 5 mph ()    
Max Wind Speed 12 mph    
Max Gust Speed -    
Visibility 2.1 miles    
Events      
Averages and records for this station are not official NWS values.
T = Trace of Precipitation, MM = Missing Value Source: Averaged Metar Reports

Daily Weather History Graph

Daily Weather History Graph

Search for Another Location

Airport or City:

Trip Planner

Search our weather history database for the weather conditions in past years. The results will help you decide how hot, cold, wet, or windy it might be!

Date:

Astronomy

Sep. 02, 2012 Rise Set
Actual Time 6:22 AM IST 6:55 PM IST
Civil Twilight 5:59 AM IST 7:18 PM IST
Nautical Twilight 5:32 AM IST 7:45 PM IST
Astronomical Twilight 5:05 AM IST 8:12 PM IST
Moon 7:52 PM IST (9/2) 7:43 AM IST (9/2)
Length of Visible Light 13h 19m
Length of Day
12h 33m
Full, 97% of the Moon is Illuminated
Sep 2
Full
Sep 8
Last Quarter
Sep 16
New
Sep 23
First Quarter
Sep 30
Full

Hourly Weather History & Observations

Time (IST) Temp. Heat Index Dew Point Humidity Pressure Visibility Wind Dir Wind Speed Gust Speed Precip Events Conditions
12:10 AM 84.2 °F 98.3 °F 80.6 °F 89% 29.62 in 1.6 mi SSW 6.9 mph - N/A   Haze
12:40 AM 84.2 °F 98.3 °F 80.6 °F 89% 29.62 in 1.6 mi South 5.8 mph - N/A   Haze
1:10 AM 84.2 °F 98.3 °F 80.6 °F 89% 29.59 in 1.6 mi South 5.8 mph - N/A   Haze
1:40 AM 84.2 °F 98.3 °F 80.6 °F 89% 29.59 in 1.6 mi SSW 5.8 mph - N/A   Haze
2:10 AM 84.2 °F 100.6 °F 82.4 °F 94% 29.56 in 1.6 mi South 5.8 mph - N/A   Haze
2:30 AM 82 °F - 80 °F 91% 29.60 in 1 mi Calm Calm - -   Haze
2:40 AM 84.2 °F 100.6 °F 82.4 °F 94% 29.56 in 1.6 mi South 4.6 mph - N/A   Haze
3:10 AM 84.2 °F 100.6 °F 82.4 °F 94% 29.56 in 1.9 mi SSW 6.9 mph - N/A   Haze
3:40 AM 84.2 °F 98.3 °F 80.6 °F 89% 29.56 in - SSW 9.2 mph - N/A   Haze
4:10 AM 84.2 °F 96.1 °F 78.8 °F 84% 29.56 in 1.9 mi SW 10.4 mph - N/A   Haze
4:40 AM 82.4 °F 90.9 °F 77.0 °F 84% 29.59 in 1.9 mi SW 11.5 mph - N/A   Haze
5:10 AM 82.4 °F 89.5 °F 75.2 °F 79% 29.59 in 1.9 mi SW 10.4 mph - N/A   Haze
5:30 AM 81 °F - 78 °F 90% 29.61 in 1 mi Calm Calm - -   Haze
5:40 AM 82.4 °F 89.5 °F 75.2 °F 79% 29.59 in 1.9 mi SW 5.8 mph - N/A   Haze
6:10 AM 82.4 °F 89.5 °F 75.2 °F 79% 29.59 in 1.9 mi SW 4.6 mph - N/A   Haze
6:40 AM 82.4 °F 89.5 °F 75.2 °F 79% 29.59 in 1.6 mi SW 5.8 mph - N/A   Haze
7:10 AM 82.4 °F 89.5 °F 75.2 °F 79% 29.62 in 1.2 mi SW 5.8 mph - N/A   Haze
7:40 AM 82.4 °F 89.5 °F 75.2 °F 79% 29.62 in 1.2 mi SW 5.8 mph - N/A   Haze
8:10 AM 84.2 °F 92.3 °F 75.2 °F 74% 29.62 in 1.2 mi SSW 4.6 mph - N/A   Haze
8:30 AM 83 °F - 79 °F 85% 29.64 in 2 mi SSW 2.3 mph - -   Haze
8:40 AM 84.2 °F 92.3 °F 75.2 °F 74% 29.62 in 1.2 mi SSW 5.8 mph - N/A   Haze
9:10 AM 86.0 °F 96.9 °F 77.0 °F 74% 29.65 in 1.2 mi SW 5.8 mph - N/A   Haze
9:40 AM 86.0 °F 96.9 °F 77.0 °F 74% 29.65 in 1.2 mi SW 5.8 mph - N/A   Haze
10:10 AM 87.8 °F 99.7 °F 77.0 °F 70% 29.65 in 1.2 mi SSW 5.8 mph - N/A   Haze
11:30 AM 89 °F - 78 °F 63% 29.66 in 2 mi SW 2.3 mph - -   Haze
12:10 PM 91.4 °F 107.2 °F 78.8 °F 66% 29.65 in 3.1 mi SW 5.8 mph - N/A   Haze
12:40 PM 91.4 °F 111.0 °F 80.6 °F 71% 29.62 in 3.1 mi SW 4.6 mph - N/A   Haze
1:10 PM 91.4 °F 111.0 °F 80.6 °F 71% 29.62 in 3.1 mi SW 4.6 mph - N/A   Haze
1:40 PM 91.4 °F 111.0 °F 80.6 °F 71% 29.59 in 3.1 mi WSW 4.6 mph - N/A   Haze
2:10 PM 91.4 °F 111.0 °F 80.6 °F 71% 29.59 in 3.1 mi Variable 2.3 mph - N/A   Haze
2:30 PM 91 °F - 80 °F 63% 29.59 in 2 mi Calm Calm - -   Haze
2:40 PM 93.2 °F 117.1 °F 82.4 °F 71% 29.56 in 3.1 mi Variable 3.5 mph - N/A   Haze
3:10 PM 93.2 °F 117.1 °F 82.4 °F 71% 29.53 in 3.1 mi Variable 3.5 mph - N/A   Haze
3:40 PM 95.0 °F 123.7 °F 84.2 °F 71% 29.53 in - North - - N/A   Haze
4:10 PM 95.0 °F 123.7 °F 84.2 °F 71% 29.53 in - North - - N/A   Haze
4:40 PM 95.0 °F 123.7 °F 84.2 °F 71% 29.53 in 3.1 mi SW 4.6 mph - N/A   Haze
5:10 PM 95.0 °F 123.7 °F 84.2 °F 71% 29.53 in 3.1 mi Calm Calm - N/A   Haze
5:30 PM 91 °F - 79 °F 60% 29.55 in 2 mi Calm Calm - -   Haze
5:40 PM 93.2 °F 120.9 °F 84.2 °F 75% 29.53 in 3.1 mi Variable 3.5 mph - N/A   Haze
6:10 PM 93.2 °F 117.1 °F 82.4 °F 71% 29.53 in 3.1 mi Variable 3.5 mph - N/A   Haze
6:40 PM 91.4 °F 111.0 °F 80.6 °F 71% 29.53 in 3.1 mi Variable 3.5 mph - N/A   Haze
7:10 PM 91.4 °F 107.2 °F 78.8 °F 66% 29.56 in 2.5 mi ESE 3.5 mph - N/A   Haze
7:40 PM 89.6 °F 104.7 °F 78.8 °F 70% 29.56 in 2.5 mi ESE 3.5 mph - N/A   Haze
8:10 PM 89.6 °F 104.7 °F 78.8 °F 70% 29.56 in 2.5 mi SSE 3.5 mph - N/A   Haze
8:30 PM 86 °F - 81 °F 81% 29.60 in 2 mi SW 3.5 mph - -   Haze
8:40 PM 89.6 °F 104.7 °F 78.8 °F 70% 29.59 in 2.5 mi South 3.5 mph - N/A   Haze
9:10 PM 87.8 °F 102.5 °F 78.8 °F 75% 29.59 in 2.5 mi SSW 3.5 mph - N/A   Haze
9:40 PM 87.8 °F 102.5 °F 78.8 °F 75% 29.59 in 2.5 mi SSW 3.5 mph - N/A   Haze
10:10 PM 87.8 °F 99.7 °F 77.0 °F 70% 29.59 in 2.5 mi SSW 3.5 mph - N/A   Haze
10:40 PM 87.8 °F 99.7 °F 77.0 °F 70% 29.62 in 2.5 mi SSW 4.6 mph - N/A   Haze
11:10 PM 86.0 °F 96.9 °F 77.0 °F 74% 29.62 in 2.5 mi SSW 4.6 mph - N/A   Haze
11:30 PM 85 °F - 81 °F 83% 29.64 in 2 mi South 3.5 mph - -   Haze